GW2134 Weather Reports


time (UTC)temp
C
wind
direction
speed
KPH
gust
KPH
rain 1hr
cm
rain 24hr
cm
rain mn
cm
humidity
%
barometer
mb
20260505124600 18 130 8.0 22.5 0.00 1.24 1.24 65 1015.0
20260505123050 18 180 1.6 8.0 0.00 1.24 1.24 72 1015.1
20260505121553 18 0 3.2 11.3 0.00 1.24 1.24 78 1015.5
20260505120053 17 0 1.6 9.7 0.00 1.24 1.24 78 1015.5
20260505114557 16 0 3.2 9.7 0.00 1.24 1.24 82 1015.7
20260505113055 16 148 4.8 11.3 0.00 1.24 1.24 85 1015.7
20260505111554 16 0 1.6 6.4 0.00 1.24 1.24 89 1015.5
20260505101550 13 0 0.0 3.2 0.15 1.22 1.22 91 1015.9
20260505100050 12 0 0.0 3.2 0.28 1.22 1.22 91 1016.1
20260505094553 12 355 3.2 6.4 0.33 1.22 1.22 91 1015.8
20260505093051 12 0 0.0 4.8 0.28 1.14 1.14 92 1015.8
20260505091605 12 0 0.0 3.2 0.23 1.07 1.07 91 1016.1
20260505090052 11 0 0.0 4.8 0.15 0.94 0.94 91 1015.8
20260505084552 11 0 0.0 4.8 0.18 0.86 0.86 91 1015.7
20260505083053 11 346 1.6 12.9 0.18 0.84 0.84 91 1015.6
20260505081552 11 0 1.6 6.4 0.15 0.84 0.84 91 1015.8
20260505080104 11 36 1.6 4.8 0.08 0.76 0.76 91 1015.7
20260505074558 11 0 0.0 3.2 0.00 0.69 0.69 91 1015.6
20260505073100 11 0 0.0 3.2 0.00 0.66 0.66 91 1015.3
20260505071555 11 0 0.0 1.6 0.00 0.66 0.66 91 1015.4
20260505070101 11 0 0.0 4.8 0.05 0.66 0.66 91 1015.6
20260505064600 11 5 0.0 4.8 0.13 0.66 0.66 91 1015.7
20260505063114 11 0 0.0 3.2 0.20 0.66 0.66 91 1015.9
20260505061607 11 0 0.0 1.6 0.28 0.64 0.64 91 1015.9
20260505060059 11 0 0.0 1.6 0.36 0.61 0.61 91 1016.0
20260505054609 10 0 0.0 4.8 0.38 0.53 0.53 90 1016.2
20260505053101 10 21 1.6 4.8 0.30 0.46 0.46 90 1016.0
20260505051554 10 21 1.6 4.8 0.23 0.36 0.36 90 1015.7
20260505041559 10 334 1.6 6.4 0.05 0.13 0.13 88 1015.9
20260505040057 10 360 1.6 4.8 0.08 0.13 0.13 87 1016.0
20260505034558 11 0 0.0 4.8 0.08 0.13 0.13 87 1016.0
20260505033052 11 344 0.0 4.8 0.08 0.10 0.10 86 1016.3
20260505031603 11 17 1.6 6.4 0.08 0.08 0.08 85 1016.5
20260505030054 11 360 1.6 9.7 0.05 0.05 0.05 84 1016.7
20260505024559 11 5 3.2 8.0 0.03 0.03 0.03 82 1016.8
20260505023054 11 337 3.2 8.0 0.00 0.00 0.00 79 1016.9
20260505021555 12 0 1.6 8.0 0.00 0.00 0.00 76 1017.1
20260505020054 12 15 1.6 6.4 0.00 0.00 0.00 75 1017.3
20260505014607 12 360 1.6 6.4 0.00 0.00 0.00 74 1017.4
20260505013051 12 11 3.2 8.0 0.00 0.00 0.00 75 1017.5
20260505011605 12 15 0.0 6.4 0.00 0.00 0.00 74 1017.5
20260505010054 12 22 3.2 6.4 0.00 0.00 0.00 74 1017.7
20260505004555 12 25 3.2 6.4 0.00 0.00 0.00 73 1018.1
20260505003053 12 9 1.6 6.4 0.00 0.00 0.00 73 1018.4
20260505001550 12 355 1.6 11.3 0.00 0.00 0.00 72 1018.7
20260505000105 12 13 1.6 6.4 0.00 0.00 0.00 71 1018.8
20260504234552 12 11 1.6 6.4 0.00 0.00 0.00 70 1018.9
20260504233107 12 360 1.6 6.4 0.00 0.00 0.00 70 1019.1
20260504231551 12 0 3.2 6.4 0.00 0.00 0.00 69 1019.3
20260504230053 12 13 3.2 8.0 0.00 0.00 0.00 68 1019.5
20260504224602 12 333 4.8 6.4 0.00 0.00 0.00 69 1019.7
20260504223119 12 335 1.6 8.0 0.00 0.00 0.00 69 1019.6
20260504221552 12 98 3.2 4.8 0.00 0.00 0.00 69 1019.7
20260504220053 12 5 1.6 6.4 0.00 0.00 0.00 69 1019.8
20260504214555 13 19 1.6 3.2 0.00 0.00 0.00 69 1019.8
20260504213104 13 0 0.0 3.2 0.00 0.00 0.00 71 1019.9
20260504211553 13 12 1.6 4.8 0.00 0.00 0.00 71 1019.9
20260504210101 13 0 0.0 4.8 0.00 0.00 0.00 71 1020.1
20260504204555 13 0 0.0 6.4 0.00 0.00 0.00 70 1020.1
20260504203108 14 5 1.6 4.8 0.00 0.00 0.00 69 1020.1
20260504201557 15 0 0.0 3.2 0.00 0.00 0.00 67 1020.2
20260504200106 15 0 0.0 3.2 0.00 0.00 0.00 66 1020.2
20260504194553 15 0 0.0 3.2 0.00 0.00 0.00 65 1020.0
20260504193058 15 0 0.0 8.0 0.00 0.00 0.00 63 1019.9
20260504191557 15 153 0.0 6.4 0.00 0.00 0.00 57 1019.7
20260504190105 15 169 3.2 11.3 0.00 0.00 0.00 58 1019.6
20260504184559 15 0 0.0 3.2 0.00 0.00 0.00 60 1019.6
20260504183057 16 0 3.2 14.5 0.00 0.00 0.00 58 1019.5
20260504181554 16 140 4.8 11.3 0.00 0.00 0.00 57 1019.7
20260504180059 16 163 3.2 11.3 0.00 0.00 0.00 55 1019.7
20260504174609 16 0 0.0 8.0 0.00 0.00 0.00 53 1019.7
20260504173055 17 141 3.2 14.5 0.00 0.00 0.00 51 1019.6
20260504171558 17 156 3.2 9.7 0.00 0.00 0.00 50 1019.6